Weather History for Mandan, ND

Change the Weather History Date:

Wednesday, January 9, 2013

  Actual Average (KBIS) Record (KBIS)
Temperature  
Mean Temperature 26 °F 12 °F  
Max Temperature 33 °F 23 °F 53 °F (2012)
Min Temperature 19 °F 2 °F -41 °F (1977)
Degree Days  
Heating Degree Days 39 53  
Month to date heating degree days 472  
Since 1 July heating degree days 3972  
Cooling Degree Days 0 0  
Month to date cooling degree days 0  
Year to date cooling degree days 0  
Moisture  
Dew Point 22 °F    
Average Humidity 82    
Maximum Humidity 100    
Minimum Humidity 69    
Precipitation  
Precipitation 0.00 in 0.01 in 0.33 in (1975)
Month to date precipitation 0.14  
Year to date precipitation 0.14  
Snow  
Snow 0.00 in 0.30 in 4.00 in (1975)
Month to date snowfall 2.9  
Since 1 July snowfall 23.4  
Snow Depth -    
Sea Level Pressure  
Sea Level Pressure 30.00 in    
Wind  
Wind Speed 16 mph (SSW)    
Max Wind Speed 25 mph    
Max Gust Speed 30 mph    
Visibility 10 miles    
Events      
T = Trace of Precipitation, MM = Missing Value Source: NWS Daily Summary

Daily Weather History Graph

Daily Weather History Graph

Search for Another Location

Airport:

Trip Planner

Search our weather history database for the weather conditions in past years. The results will help you decide how hot, cold, wet, or windy it might be!

Date:

Astronomy

Jan. 09, 2013 Rise Set
Actual Time 8:26 AM CST 5:15 PM CST
Civil Twilight 7:52 AM CST 5:49 PM CST
Nautical Twilight 7:14 AM CST 6:27 PM CST
Astronomical Twilight 6:37 AM CST 7:04 PM CST
Moon 6:08 AM CST (1/9) 3:18 PM CST (1/9)
Length of Visible Light 9h 57m
Length of Day
8h 48m
Waning Crescent, 6% of the Moon is Illuminated
Jan 9
Waning Crescent
Jan 11
New
Jan 18
First Quarter
Jan 26
Full
Feb 3
Last Quarter

Hourly Weather History & Observations

Time (CST) Temp. Windchill Dew Point Humidity Pressure Visibility Wind Dir Wind Speed Gust Speed Precip Events Conditions
12:15 AM 26.6 °F 12.4 °F 23.0 °F 86% 29.95 in 10.0 mi West 21.9 mph - N/A   Clear
12:35 AM 26.6 °F 13.1 °F 21.2 °F 80% 29.96 in 10.0 mi West 19.6 mph - N/A   Clear
12:55 AM 26.6 °F 12.4 °F 21.2 °F 80% 29.95 in 10.0 mi West 21.9 mph 26.5 mph N/A   Clear
1:15 AM 26.6 °F 12.4 °F 19.4 °F 74% 29.97 in 10.0 mi West 21.9 mph 28.8 mph N/A   Clear
1:35 AM 24.8 °F 10.0 °F 19.4 °F 80% 29.98 in 10.0 mi West 21.9 mph 28.8 mph N/A   Clear
1:55 AM 24.8 °F 10.3 °F 19.4 °F 80% 29.99 in 10.0 mi West 20.7 mph - N/A   Clear
2:15 AM 24.8 °F 9.6 °F 19.4 °F 80% 29.99 in 10.0 mi West 23.0 mph - N/A   Clear
2:35 AM 24.8 °F 9.6 °F 19.4 °F 80% 30.00 in 10.0 mi West 23.0 mph - N/A   Clear
2:55 AM 24.8 °F 9.0 °F 19.4 °F 80% 30.01 in 10.0 mi West 25.3 mph 29.9 mph N/A   Clear
3:15 AM 24.8 °F 10.0 °F 19.4 °F 80% 30.01 in 10.0 mi West 21.9 mph - N/A   Clear
3:35 AM 23.0 °F 7.6 °F 17.6 °F 80% 30.03 in 10.0 mi West 21.9 mph 27.6 mph N/A   Clear
3:55 AM 23.0 °F 7.6 °F 17.6 °F 80% 30.04 in 10.0 mi West 21.9 mph - N/A   Clear
4:15 AM 23.0 °F 8.0 °F 17.6 °F 80% 30.05 in 10.0 mi West 20.7 mph - N/A   Clear
4:35 AM 24.8 °F 11.5 °F 17.6 °F 74% 30.06 in 10.0 mi West 17.3 mph 24.2 mph N/A   Clear
4:55 AM 23.0 °F 9.6 °F 17.6 °F 80% 30.06 in 10.0 mi West 16.1 mph - N/A   Clear
5:15 AM 23.0 °F 9.6 °F 17.6 °F 80% 30.06 in 10.0 mi WSW 16.1 mph 21.9 mph N/A   Clear
5:35 AM 23.0 °F 9.2 °F 17.6 °F 80% 30.06 in 10.0 mi WSW 17.3 mph 21.9 mph N/A   Clear
5:55 AM 21.2 °F 8.3 °F 15.8 °F 80% 30.07 in 10.0 mi WSW 13.8 mph - N/A   Clear
6:15 AM 21.2 °F 8.9 °F 15.8 °F 80% 30.06 in 10.0 mi West 12.7 mph - N/A   Clear
6:35 AM 21.2 °F 6.8 °F 15.8 °F 80% 30.06 in 10.0 mi West 17.3 mph - N/A   Clear
7:15 AM 19.4 °F 6.6 °F 15.8 °F 86% 30.06 in 10.0 mi WSW 12.7 mph - N/A   Clear
7:35 AM 19.4 °F 8.6 °F 14.0 °F 80% 30.07 in 10.0 mi West 9.2 mph - N/A   Clear
7:55 AM 19.4 °F 10.4 °F 14.0 °F 80% 30.07 in 10.0 mi WNW 6.9 mph - N/A   Scattered Clouds
8:15 AM 19.4 °F 12.8 °F 14.0 °F 80% 30.08 in 10.0 mi SW 4.6 mph - N/A   Mostly Cloudy
8:35 AM 21.2 °F - 14.0 °F 74% 30.08 in 10.0 mi Calm Calm - N/A   Partly Cloudy
8:55 AM 19.4 °F 14.3 °F 14.0 °F 80% 30.09 in 10.0 mi SSE 3.5 mph - N/A   Clear
9:15 AM 19.4 °F - 14.0 °F 80% 30.08 in 10.0 mi Calm Calm - N/A   Clear
9:35 AM 23.0 °F 18.4 °F 15.8 °F 74% 30.08 in 10.0 mi South 3.5 mph - N/A   Clear
9:55 AM 19.4 °F 8.6 °F 14.0 °F 80% 30.09 in 10.0 mi South 9.2 mph - N/A   Clear
10:15 AM 21.2 °F 11.7 °F 15.8 °F 80% 30.09 in 10.0 mi South 8.1 mph - N/A   Clear
10:35 AM 23.0 °F 13.9 °F 15.8 °F 74% 30.09 in 10.0 mi South 8.1 mph - N/A   Clear
10:55 AM 21.2 °F 11.7 °F 15.8 °F 80% 30.08 in 10.0 mi SE 8.1 mph - N/A   Clear
11:15 AM 23.0 °F 14.7 °F 15.8 °F 74% 30.09 in 10.0 mi SE 6.9 mph - N/A   Clear
11:35 AM 23.0 °F 13.9 °F 17.6 °F 80% 30.09 in 10.0 mi SE 8.1 mph - N/A   Clear
11:55 AM 24.8 °F 16.9 °F 17.6 °F 74% 30.08 in 10.0 mi SE 6.9 mph - N/A   Clear
12:15 PM 24.8 °F 16.1 °F 17.6 °F 74% 30.07 in 10.0 mi SE 8.1 mph - N/A   Clear
12:35 PM 24.8 °F 16.1 °F 19.4 °F 80% 30.07 in 10.0 mi SSE 8.1 mph - N/A   Clear
12:55 PM 26.6 °F 15.7 °F 21.2 °F 80% 30.07 in 10.0 mi SSE 12.7 mph - N/A   Clear
1:15 PM 28.4 °F 15.4 °F 21.2 °F 74% 30.06 in 10.0 mi South 19.6 mph - N/A   Clear
1:35 PM 28.4 °F 16.6 °F 23.0 °F 80% 30.04 in 10.0 mi SSE 16.1 mph - N/A   Clear
1:55 PM 30.2 °F 19.3 °F 23.0 °F 75% 30.03 in 10.0 mi SSE 15.0 mph - N/A   Clear
2:15 PM 32.0 °F 20.8 °F 23.0 °F 69% 30.02 in 10.0 mi SSE 17.3 mph - N/A   Clear
2:35 PM 32.0 °F 21.2 °F 24.8 °F 75% 30.02 in 10.0 mi South 16.1 mph - N/A   Clear
2:55 PM 32.0 °F 21.2 °F 24.8 °F 75% 30.02 in 10.0 mi South 16.1 mph - N/A   Clear
3:15 PM 32.0 °F 21.2 °F 26.6 °F 80% 30.02 in 10.0 mi South 16.1 mph - N/A   Clear
3:35 PM 32.0 °F 20.1 °F 26.6 °F 80% 30.02 in 10.0 mi South 19.6 mph - N/A   Clear
3:55 PM 32.0 °F 21.6 °F 26.6 °F 80% 30.02 in 10.0 mi South 15.0 mph - N/A   Clear
4:15 PM 32.0 °F 22.1 °F 26.6 °F 80% 30.01 in 10.0 mi South 13.8 mph - N/A   Clear
4:35 PM 32.0 °F 23.6 °F 26.6 °F 80% 30.00 in 10.0 mi South 10.4 mph - N/A   Clear
4:55 PM 32.0 °F 22.5 °F 28.4 °F 87% 29.99 in 10.0 mi SSW 12.7 mph - N/A   Clear
5:15 PM 32.0 °F 22.5 °F 28.4 °F 87% 29.98 in 10.0 mi SSW 12.7 mph - N/A   Clear
5:35 PM 32.0 °F 22.1 °F 28.4 °F 87% 29.98 in 10.0 mi SSW 13.8 mph - N/A   Clear
6:15 PM 32.0 °F 23.0 °F 28.4 °F 87% 29.97 in 10.0 mi South 11.5 mph - N/A   Clear
6:35 PM 32.0 °F 21.6 °F 28.4 °F 87% 29.96 in 10.0 mi South 15.0 mph - N/A   Clear
6:55 PM 32.0 °F 21.2 °F 28.4 °F 87% 29.95 in 10.0 mi SSW 16.1 mph - N/A   Clear
7:15 PM 32.0 °F 21.2 °F 28.4 °F 87% 29.94 in 10.0 mi South 16.1 mph - N/A   Clear
7:35 PM 32.0 °F 23.0 °F 28.4 °F 87% 29.94 in 10.0 mi South 11.5 mph - N/A   Clear
7:55 PM 32.0 °F 23.0 °F 28.4 °F 87% 29.92 in 10.0 mi South 11.5 mph 18.4 mph N/A   Clear
8:15 PM 32.0 °F 23.0 °F 28.4 °F 87% 29.91 in 10.0 mi SSE 11.5 mph - N/A   Clear
8:35 PM 32.0 °F 22.1 °F 28.4 °F 87% 29.90 in 10.0 mi SSE 13.8 mph - N/A   Clear
8:55 PM 32.0 °F 23.0 °F 28.4 °F 87% 29.89 in 10.0 mi South 11.5 mph - N/A   Clear
9:15 PM 32.0 °F 23.6 °F 28.4 °F 87% 29.88 in 10.0 mi SSE 10.4 mph - N/A   Clear
9:35 PM 33.8 °F 23.2 °F 28.4 °F 81% 29.88 in 10.0 mi South 17.3 mph - N/A   Clear
9:55 PM 32.0 °F 20.5 °F 28.4 °F 87% 29.87 in 10.0 mi South 18.4 mph - N/A   Clear
10:15 PM 32.0 °F 21.6 °F 28.4 °F 87% 29.87 in 10.0 mi South 15.0 mph - N/A   Clear
10:35 PM 30.2 °F 21.9 °F 28.4 °F 93% 29.87 in 10.0 mi SSE 9.2 mph - N/A   Clear
10:55 PM 28.4 °F 18.5 °F 28.4 °F 100% 29.86 in 10.0 mi SSE 11.5 mph - N/A   Clear
11:15 PM 28.4 °F 19.7 °F 28.4 °F 100% 29.84 in 10.0 mi SSE 9.2 mph - N/A   Partly Cloudy
11:35 PM 28.4 °F 19.7 °F 28.4 °F 100% 29.83 in 10.0 mi SSE 9.2 mph - N/A   Scattered Clouds
11:55 PM 28.4 °F 19.1 °F 28.4 °F 100% 29.82 in 10.0 mi SSE 10.4 mph - N/A   Scattered Clouds